RH
32 34 34 31 28 28 27 28 28 25 25 27 28 27 26 26 26 25 24 22 21 21 22 22 22 21 21 21 22 21 20 19 18 17 17 18 19 20 21 22 21 20 18 17 17 19 20 20 18 17 17 16 17 19 23 26 27 26 26 29 32 37 41 39 36 29 23 25 33 35 38 39 35 33 38 43 46 47 51 58 61 62 69 80 86
35 35 36 32 29 28 29 30 30 29 28 30 29 27 27 27 27 26 25 22 21 21 21 21 20 19 20 21 20 19 18 18 17 18 18 19 20 22 24 25 25 24 22 21 19 18 18 17 18 19 20 19 17 17 20 23 27 26 27 30 33 39 49 50 44 34 22 21 28 30 31 34 35 33 30 31 35 37 40 48 54 54 56 67 78
40 38 40 38 34 31 32 33 33 31 32 32 30 28 28 28 28 26 24 21 21 21 20 19 18 18 19 19 19 18 18 18 18 18 19 20 21 23 24 25 25 25 24 24 23 23 22 18 17 20 24 24 21 18 19 20 25 28 28 30 32 37 48 55 54 49 39 32 30 30 28 28 31 33 31 28 30 33 34 35 41 44 46 56 67
41 44 44 43 40 37 36 38 37 34 34 33 32 30 28 28 28 27 24 22 21 20 19 18 18 18 18 19 18 19 19 19 19 18 19 19 20 21 23 23 23 23 23 24 24 26 26 24 21 23 26 27 25 22 21 20 22 26 28 30 32 34 43 50 51 51 48 41 39 41 38 32 30 34 34 31 29 32 35 36 39 41 40 45 53
41 44 46 46 46 43 43 43 42 40 39 37 34 32 30 29 29 28 26 23 22 20 20 19 20 20 20 20 21 21 21 20 19 19 18 19 20 20 21 22 22 22 23 23 24 26 28 27 25 27 29 30 28 25 26 24 22 23 25 30 32 32 36 42 47 48 48 46 48 53 52 43 38 37 35 36 33 32 36 39 40 42 41 40 42
61 55 51 50 50 50 50 50 48 47 46 43 39 35 33 32 32 31 28 24 22 21 21 22 22 22 23 23 23 23 23 21 20 19 19 20 20 21 22 22 22 24 25 27 27 28 30 29 28 29 31 31 30 27 27 27 26 24 22 25 30 33 33 35 40 46 51 52 52 56 59 56 54 48 40 38 40 37 37 40 41 42 40 36 35
75 74 66 61 60 59 58 56 53 53 54 52 45 38 37 36 36 34 30 26 23 23 24 24 24 24 25 25 25 23 22 21 20 20 21 21 22 23 23 24 25 27 29 31 31 31 31 31 31 30 31 32 30 29 28 28 27 26 24 23 25 30 32 32 34 41 50 54 54 56 59 58 59 57 49 44 44 41 38 39 40 41 40 35 33
61 70 69 70 72 70 67 64 60 59 60 59 51 43 41 40 40 36 32 28 25 25 25 26 25 26 26 24 23 22 22 21 20 20 20 20 20 21 22 22 24 26 29 30 31 31 31 31 31 32 32 32 32 32 32 31 29 28 26 25 25 25 29 31 33 36 43 49 52 53 55 54 54 58 56 51 48 45 42 43 43 42 43 40 38
52 55 58 68 78 80 78 73 69 66 66 65 59 49 45 44 42 38 34 30 28 27 28 28 27 26 24 23 22 22 23 23 22 21 21 20 19 17 18 20 22 24 26 27 28 29 30 31 31 31 31 31 32 32 33 33 34 31 28 27 26 25 26 28 30 33 37 43 47 50 52 52 51 55 60 59 55 49 48 51 52 48 48 47 47
55 55 56 63 73 81 83 79 77 77 77 73 65 56 50 47 43 39 36 33 31 31 31 30 27 25 23 23 24 25 26 26 25 24 23 21 18 16 18 20 23 24 24 25 25 25 27 28 29 30 31 31 32 32 32 32 33 34 31 29 28 27 26 26 27 29 32 36 42 49 52 51 50 55 60 61 61 58 56 59 59 55 52 51 51
58 56 60 62 64 74 83 82 81 84 84 79 72 62 54 49 44 41 38 36 35 35 33 30 27 26 26 26 27 27 27 27 26 25 24 23 20 19 20 22 24 25 26 27 26 26 26 27 27 28 29 30 31 33 33 33 34 34 33 31 31 30 30 28 27 28 29 30 34 41 49 49 49 55 60 60 62 62 61 61 63 63 59 56 56
63 57 60 61 59 66 78 83 83 84 84 81 76 67 57 50 46 45 43 41 40 38 35 32 30 29 29 29 28 27 26 26 25 25 25 24 23 23 24 26 27 28 29 30 29 29 29 29 29 30 29 29 29 30 31 32 34 34 34 33 32 32 32 32 31 30 30 30 29 31 38 43 45 50 57 61 62 63 64 64 68 72 68 62 64
62 63 64 63 58 58 67 78 82 82 82 83 78 70 61 55 52 50 48 45 43 40 37 35 34 32 30 28 27 26 25 25 25 25 24 24 26 29 29 30 30 30 31 32 31 31 31 31 31 31 31 30 29 29 29 29 31 33 33 33 32 32 32 32 32 32 33 34 32 28 28 33 37 42 50 59 62 63 65 67 69 72 71 67 70
56 61 62 62 59 55 58 65 70 73 79 82 78 71 66 62 57 53 50 47 45 43 41 38 35 33 30 27 26 25 25 25 23 23 23 25 28 30 31 31 32 32 33 33 32 32 32 32 32 31 31 32 31 31 29 29 30 31 32 33 32 32 33 32 32 32 33 35 35 31 29 29 30 33 40 51 56 58 61 63 65 68 67 66 70
60 58 53 52 52 51 52 54 57 63 72 76 77 74 69 64 58 53 51 49 47 45 42 39 36 33 29 26 24 24 24 24 23 23 25 26 27 28 29 31 32 32 34 33 33 33 33 33 33 33 33 33 33 34 33 32 32 32 32 33 33 33 34 34 36 37 37 37 36 34 34 33 31 30 34 40 47 53 58 61 62 65 68 68 67
74 74 66 61 58 58 59 59 61 67 69 72 75 75 70 63 58 55 53 51 48 46 42 39 34 30 26 24 23 23 24 25 26 26 26 25 26 27 28 29 32 33 34 35 35 35 35 35 36 35 36 36 36 37 37 37 36 36 35 34 35 34 32 33 37 40 40 39 38 37 37 37 35 33 32 34 38 45 52 56 58 61 66 69 68
75 87 85 82 80 77 76 75 75 77 76 74 74 74 71 65 59 57 56 52 48 44 39 35 30 26 24 22 22 22 23 24 25 24 24 24 25 25 27 29 32 34 35 36 37 37 37 37 38 38 38 38 38 39 39 39 38 37 37 37 37 37 35 35 39 40 40 39 39 38 39 39 39 38 35 34 35 38 42 47 51 54 58 62 65
59 74 82 86 86 83 83 82 82 83 81 76 72 72 71 67 62 60 55 48 43 39 35 33 30 27 26 24 22 21 20 19 20 21 23 24 24 25 27 29 32 35 37 38 38 39 39 39 39 38 37 37 37 38 39 40 40 38 37 37 37 37 37 39 41 41 42 42 39 38 40 42 41 41 40 38 35 34 36 38 41 44 47 51 57
51 65 75 81 82 81 82 80 79 81 80 75 72 72 69 65 62 58 50 42 39 37 36 35 33 30 28 26 23 21 18 17 18 20 22 23 24 26 29 31 34 37 39 40 41 41 40 40 39 40 39 39 40 40 40 40 40 39 38 38 37 36 37 39 40 40 42 43 41 39 40 43 44 42 42 42 40 37 34 33 33 36 38 42 48
50 59 66 72 76 82 88 87 82 80 76 74 75 74 69 64 58 52 46 42 40 38 37 35 32 29 27 25 22 19 16 16 18 20 22 24 27 29 32 35 37 38 40 41 40 39 39 39 40 41 42 43 44 45 44 44 42 40 39 38 36 36 37 38 38 39 39 41 42 41 38 40 43 44 43 43 43 41 37 33 31 31 33 36 42
52 58 63 68 74 81 90 92 87 82 78 76 76 74 69 64 58 51 46 42 39 37 35 32 29 27 24 22 20 18 16 16 18 22 25 28 30 33 35 37 39 39 39 39 39 39 40 42 44 45 48 49 50 50 50 49 48 45 41 39 37 37 38 38 38 39 38 38 40 41 39 38 39 43 45 44 43 42 41 38 35 33 32 33 36
52 58 63 69 74 79 82 84 82 79 77 75 73 71 67 62 58 52 45 40 38 35 31 28 26 24 21 20 19 18 17 18 21 25 28 30 33 35 37 39 39 40 40 40 42 44 47 50 52 55 57 59 59 59 58 56 55 52 47 45 43 41 40 39 39 39 39 38 38 39 39 38 37 38 43 45 44 42 41 40 40 39 35 32 33
49 52 58 67 74 73 71 75 78 77 75 74 73 70 64 59 55 48 42 39 36 31 28 26 24 21 19 18 19 20 21 23 23 24 28 31 34 36 38 39 40 41 43 46 48 51 54 58 61 63 66 67 68 68 67 64 61 58 54 52 50 48 46 43 42 42 41 40 40 38 37 37 36 36 39 43 44 43 41 41 42 41 37 34 34
56 55 62 73 77 71 67 73 79 77 76 78 76 69 60 54 49 44 40 37 32 28 27 25 22 20 19 20 21 23 25 25 23 25 29 32 34 36 38 39 41 45 49 52 55 58 62 67 70 71 73 76 77 77 75 73 71 68 65 61 57 55 53 50 47 47 45 43 42 39 37 38 37 35 36 40 43 44 42 41 42 42 40 39 38
68 67 72 79 81 77 75 79 80 78 78 76 70 61 53 50 49 46 42 37 32 30 29 26 22 21 21 22 24 25 26 26 25 27 32 33 35 37 39 42 46 52 56 59 63 67 71 73 74 77 80 84 86 84 82 81 80 79 77 74 70 64 60 56 54 53 51 48 45 42 38 38 38 36 36 38 42 43 41 40 43 46 45 43 42
76 75 76 80 82 80 80 80 79 76 72 66 57 51 50 51 51 47 42 37 35 33 29 26 24 23 24 25 26 26 27 27 27 29 32 34 36 40 43 47 53 59 63 66 69 72 75 76 77 80 84 88 88 86 85 85 85 85 83 81 79 75 71 66 63 61 57 53 50 46 42 40 40 38 37 38 41 43 41 41 43 47 47 45 45
75 73 75 78 78 78 78 78 75 70 63 56 50 49 51 51 49 45 42 40 38 33 29 26 25 25 25 26 26 26 28 28 28 31 34 37 40 43 48 55 61 66 69 72 75 78 79 81 82 84 87 88 88 88 87 87 87 87 86 84 82 80 79 77 74 71 67 63 57 52 49 46 44 42 39 38 41 42 43 44 47 48 47 44 45
77 75 76 77 77 77 77 73 67 61 56 53 51 52 51 49 47 45 44 41 36 31 27 26 25 25 25 25 26 28 28 28 29 34 38 40 44 50 57 63 67 71 75 78 81 85 86 87 87 88 88 88 89 90 90 90 90 89 88 85 82 78 78 79 79 78 76 74 69 63 56 52 49 46 42 40 41 43 46 50 54 55 53 50 49
80 79 81 81 80 78 73 66 60 57 55 54 53 53 51 48 47 47 45 39 33 28 26 25 24 25 24 25 29 30 29 29 33 39 42 46 52 59 64 68 72 76 80 83 86 90 91 91 91 91 91 92 92 91 91 91 91 89 88 87 84 79 76 76 77 79 80 81 80 74 66 58 54 51 47 43 42 44 49 56 59 58 57 58 58
82 83 83 82 79 74 67 61 58 57 56 55 54 52 50 49 49 47 42 37 31 28 26 24 24 25 26 29 31 33 32 33 37 43 46 53 60 66 69 72 76 80 83 86 89 91 93 94 95 94 95 94 92 90 91 92 92 90 88 85 83 80 77 76 77 79 81 84 84 81 75 67 60 56 52 46 43 45 52 59 60 58 60 64 64
83 82 80 78 73 67 61 58 56 55 55 55 53 52 51 49 48 45 41 36 32 29 27 26 26 28 30 32 33 34 36 38 42 47 54 61 67 71 72 75 80 83 86 88 90 91 92 94 96 96 97 96 94 93 94 95 93 88 82 78 76 75 74 75 78 82 84 85 86 85 81 74 67 62 57 49 45 49 56 59 60 61 64 66 65
83 82 79 74 68 61 56 54 54 54 54 54 53 52 49 48 45 43 40 38 35 33 31 30 30 30 31 33 35 37 38 41 47 54 61 67 71 72 74 78 82 85 88 90 91 93 94 94 95 97 98 98 97 96 96 97 92 84 77 73 71 71 72 74 78 84 88 87 86 85 82 75 70 66 60 52 49 54 58 59 60 62 66 67 67
83 81 75 67 61 57 56 55 55 55 54 53 52 50 48 47 44 43 43 41 39 37 36 35 33 32 32 34 37 39 40 45 54 62 67 71 73 75 77 81 82 85 89 90 90 93 95 95 95 96 97 98 98 97 97 96 90 80 74 72 71 71 72 73 78 84 89 88 86 82 78 75 72 69 63 55 53 57 60 60 61 64 68 71 71
77 72 66 61 60 60 58 56 55 54 53 52 52 51 50 48 47 46 44 42 40 40 39 38 36 33 33 35 38 39 43 52 62 68 71 74 76 78 80 82 83 85 90 92 91 92 94 95 95 95 97 99 99 97 97 96 88 78 74 73 72 72 72 73 75 80 83 84 81 77 75 75 74 71 64 59 58 63 65 63 62 66 70 72 72
67 63 61 62 63 61 58 55 55 55 55 55 54 52 51 51 50 47 43 41 42 42 41 40 38 35 34 36 38 41 49 59 68 72 73 76 80 82 83 84 85 86 90 93 93 92 94 96 95 95 98 101 99 98 98 96 87 79 74 72 72 73 74 73 74 76 78 76 74 72 73 73 71 69 66 65 65 66 66 63 65 70 73 73 75
61 60 60 61 61 59 57 57 58 58 58 57 54 53 55 55 53 47 43 42 45 44 42 41 41 38 36 38 40 44 54 65 72 75 75 79 84 87 87 87 88 90 93 95 95 94 96 97 97 97 99 100 100 99 100 96 89 82 77 73 70 71 73 73 74 75 75 73 71 70 70 70 71 73 72 68 65 64 66 68 72 76 77 80 85
60 58 58 59 59 59 60 61 62 61 60 58 56 57 60 58 51 47 47 48 50 49 44 42 42 41 40 41 42 47 58 69 75 77 78 82 86 88 89 91 92 94 95 96 96 96 96 98 98 98 99 100 100 100 100 98 93 87 80 74 71 70 71 72 73 72 72 71 69 70 71 74 76 74 68 64 65 68 71 74 77 81 84 88 91
59 56 57 59 59 61 63 64 63 62 61 60 60 61 61 57 52 52 54 56 56 53 47 43 44 45 43 41 42 48 59 70 76 79 81 84 88 90 92 93 94 95 96 97 97 97 97 98 99 99 99 100 100 100 100 99 96 90 83 76 73 71 70 70 70 69 68 68 69 70 72 74 72 68 68 73 78 80 81 82 85 89 93 95 94
59 59 60 61 62 64 65 65 64 64 61 59 60 62 61 58 55 57 59 60 59 55 50 47 47 49 48 43 42 47 58 68 76 80 82 85 91 93 92 91 91 93 96 97 97 98 98 98 98 98 99 100 100 100 100 99 98 94 88 80 75 73 72 71 69 68 66 66 67 67 68 69 71 75 81 86 87 85 87 90 93 96 97 95 93
62 63 64 64 65 66 65 64 64 62 58 56 58 60 60 57 57 60 62 62 61 60 58 53 51 53 52 46 43 47 56 65 74 81 83 86 92 95 92 90 91 93 95 96 97 98 99 99 99 99 100 99 99 100 100 99 99 97 92 82 76 73 72 69 65 63 63 63 64 66 68 73 79 84 86 87 88 89 92 96 97 97 97 93 89
66 66 67 67 67 66 64 63 61 58 55 54 55 57 57 57 58 61 64 64 64 64 65 62 56 55 55 51 46 48 55 62 72 80 83 86 91 95 94 92 93 96 97 98 98 97 97 98 99 100 99 99 100 100 99 99 100 98 92 87 79 73 70 68 61 55 57 62 64 68 74 79 82 84 86 89 92 94 94 96 97 95 94 93 90
66 67 69 69 67 66 63 60 58 54 53 53 53 53 55 57 59 61 63 64 65 67 68 67 63 59 57 55 52 52 55 60 68 77 84 87 91 95 96 95 95 97 99 99 99 98 98 98 98 99 99 99 100 100 99 100 100 98 93 91 86 80 80 83 76 63 59 62 66 71 78 81 81 83 88 92 96 96 95 95 95 93 92 93 95
68 68 67 64 61 59 58 55 53 51 50 50 50 52 54 58 60 60 61 62 64 66 69 69 67 63 60 58 57 57 60 62 66 74 83 88 91 94 96 96 97 98 98 97 98 99 100 100 99 99 100 99 99 99 100 100 101 98 94 91 88 84 85 92 92 81 71 68 69 73 78 80 82 85 90 95 98 99 98 98 95 93 91 92 93
70 67 61 56 53 53 52 50 49 48 47 48 50 52 56 59 60 61 61 61 62 63 66 68 68 67 65 63 61 62 67 69 67 70 79 88 92 94 94 94 96 98 97 96 98 100 100 100 100 100 100 100 98 98 98 99 101 100 96 92 89 86 84 88 93 92 86 82 80 81 82 84 87 90 95 98 98 98 98 97 95 92 90 89 87
67 61 54 50 49 48 48 46 45 44 45 47 50 52 56 59 60 60 61 61 60 60 62 66 68 68 68 67 63 63 69 75 72 69 74 84 92 94 93 93 95 97 95 93 97 100 98 98 100 100 100 100 99 98 98 99 99 100 99 96 91 88 85 86 90 93 94 95 95 93 90 90 93 95 97 97 96 95 95 95 93 90 90 89 90
57 50 45 43 43 44 46 46 45 45 46 47 48 50 53 57 59 59 59 60 59 58 59 63 66 67 69 70 67 63 67 75 77 72 71 77 86 93 95 94 95 96 94 92 96 100 99 97 98 99 100 100 99 98 98 100 100 100 100 99 94 90 88 88 90 92 94 97 99 98 94 93 95 96 96 95 94 92 92 92 92 92 92 92 93
48 42 40 39 39 41 45 46 46 45 45 45 46 47 49 53 56 57 58 60 59 57 56 60 64 66 67 71 71 67 65 71 78 77 73 73 78 87 94 96 96 97 96 93 94 98 99 98 98 99 99 100 100 99 98 99 98 99 100 100 97 94 91 90 90 90 91 92 93 94 94 93 94 94 94 94 92 90 89 89 90 92 94 94 93
45 41 40 39 38 39 41 42 41 40 39 40 43 46 48 51 53 54 57 59 58 53 53 56 61 64 65 69 73 72 68 68 74 78 78 75 74 78 87 94 96 96 97 95 94 95 96 97 98 100 100 100 100 99 98 99 99 98 99 100 101 98 95 93 92 90 90 90 90 91 91 92 92 92 92 91 90 89 90 90 92 94 94 91 84
44 42 42 41 39 38 38 38 38 37 36 37 39 42 46 50 52 54 56 57 55 50 49 53 58 61 63 65 70 75 74 70 70 74 78 78 75 73 77 87 93 95 97 97 97 95 94 94 95 98 100 100 99 98 96 98 100 100 99 99 100 100 97 95 94 92 91 90 89 90 90 90 89 89 89 88 89 89 90 91 93 93 88 81 76
48 46 45 43 41 40 39 38 38 37 37 37 37 38 39 42 45 47 50 51 50 47 46 48 54 60 62 62 64 70 75 75 72 71 74 78 79 74 71 76 86 93 96 98 99 98 97 94 92 93 97 99 100 99 95 93 95 99 101 99 100 100 100 99 97 96 94 92 91 90 90 89 89 90 90 91 92 93 93 94 94 90 84 81 85
51 49 48 46 45 43 43 41 40 39 39 38 37 37 36 36 37 39 40 42 43 42 41 42 47 53 59 61 61 64 70 76 76 74 72 75 79 78 72 69 76 86 93 96 98 99 99 98 95 94 94 96 99 100 98 93 90 93 97 98 97 98 100 101 100 98 98 97 96 95 94 94 95 95 95 95 95 95 94 94 93 90 87 89 94